Weather History for KLHQ - January, 2013

Change the Weather History Date:

Sunday, January 27, 2013

  Actual Average Record
Temperature  
Mean Temperature 18 °F -  
Max Temperature 35 °F 35 °F 64 °F (1944)
Min Temperature 1 °F 16 °F -18 °F (2003)
Degree Days  
Heating Degree Days 47    
Moisture  
Dew Point 13 °F    
Average Humidity 71    
Maximum Humidity 87    
Minimum Humidity 54    
Precipitation  
Precipitation 0.09 in - - ()
Sea Level Pressure  
Sea Level Pressure 30.43 in    
Wind  
Wind Speed 3 mph (SE)    
Max Wind Speed 9 mph    
Max Gust Speed -    
Visibility 8 miles    
Events      
Averages and records for this station are not official NWS values.
T = Trace of Precipitation, MM = Missing Value Source: NWS Daily Summary

Daily Weather History Graph

Daily Weather History Graph

Search for Another Location

Airport or City:

Trip Planner

Search our weather history database for the weather conditions in past years. The results will help you decide how hot, cold, wet, or windy it might be!

Date:

Astronomy

Jan. 27, 2013 Rise Set
Actual Time 7:42 AM EST 5:44 PM EST
Civil Twilight 7:13 AM EST 6:13 PM EST
Nautical Twilight 6:41 AM EST 6:46 PM EST
Astronomical Twilight 6:09 AM EST 7:17 PM EST
Moon 6:37 PM EST (1/27) 7:35 AM EST (1/27)
Length of Visible Light 10h 59m
Length of Day
10h 01m
Full, 100% of the Moon is Illuminated
Jan 27
Full
Feb 3
Last Quarter
Feb 10
New
Feb 17
First Quarter
Feb 25
Full

Hourly Weather History & Observations

Time (EST) Temp. Windchill Dew Point Humidity Pressure Visibility Wind Dir Wind Speed Gust Speed Precip Events Conditions
12:53 AM 12.0 °F - 8.1 °F 84% 30.48 in 8.0 mi Calm Calm - N/A   Clear
1:53 AM 12.0 °F - 7.0 °F 80% 30.49 in 8.0 mi Calm Calm - N/A   Clear
2:53 AM 7.0 °F - 3.0 °F 84% 30.49 in 7.0 mi Calm Calm - N/A   Clear
3:53 AM 3.9 °F - -0.9 °F 80% 30.51 in 5.0 mi Calm Calm - N/A   Haze
4:53 AM 1.9 °F - -2.0 °F 83% 30.50 in 6.0 mi Calm Calm - N/A   Clear
5:53 AM 1.9 °F -5.6 °F -2.9 °F 80% 30.49 in 5.0 mi SE 3.5 mph - N/A   Haze
6:53 AM 3.0 °F - -2.0 °F 80% 30.51 in 7.0 mi Calm Calm - N/A   Clear
7:53 AM 1.9 °F - -2.0 °F 83% 30.53 in 5.0 mi Calm Calm - N/A   Clear
8:53 AM 8.1 °F - 5.0 °F 87% 30.52 in 5.0 mi Calm Calm - N/A   Clear
9:53 AM 18.0 °F - 10.9 °F 74% 30.53 in 5.0 mi Calm Calm - N/A   Haze
10:53 AM 25.0 °F 19.3 °F 14.0 °F 63% 30.52 in 9.0 mi SSE 4.6 mph - N/A   Clear
11:53 AM 27.0 °F 21.6 °F 16.0 °F 63% 30.50 in 9.0 mi ESE 4.6 mph - N/A   Clear
12:53 PM 30.0 °F 24.1 °F 18.0 °F 61% 30.45 in 9.0 mi SE 5.8 mph - N/A   Clear
1:53 PM 33.1 °F 26.1 °F 19.0 °F 56% 30.43 in 10.0 mi SE 8.1 mph - N/A   Clear
2:53 PM 34.0 °F 28.8 °F 19.0 °F 54% 30.41 in 10.0 mi SE 5.8 mph - N/A   Clear
3:53 PM 34.0 °F 27.2 °F 21.0 °F 59% 30.38 in 10.0 mi ESE 8.1 mph - N/A   Clear
4:53 PM 35.1 °F 31.0 °F 21.0 °F 57% 30.39 in 9.0 mi South 4.6 mph - N/A   Scattered Clouds
5:53 PM 34.0 °F 27.2 °F 19.9 °F 56% 30.36 in 10.0 mi SE 8.1 mph - N/A   Overcast
6:53 PM 34.0 °F 26.6 °F 21.0 °F 59% 30.36 in 10.0 mi SE 9.2 mph - N/A   Overcast
7:53 PM 34.0 °F 26.6 °F 21.9 °F 61% 30.34 in 10.0 mi ESE 9.2 mph - N/A   Overcast
8:53 PM 34.0 °F 27.2 °F 21.0 °F 59% 30.33 in 10.0 mi SSE 8.1 mph - N/A   Overcast
9:53 PM 33.1 °F 27.7 °F 24.1 °F 70% 30.33 in 7.0 mi SE 5.8 mph - 0.00 in   Overcast
10:53 PM 32.0 °F 27.5 °F 27.0 °F 82% 30.31 in 4.0 mi SE 4.6 mph - 0.03 in   Overcast
11:53 PM 32.0 °F 24.8 °F 28.0 °F 85% 30.27 in 4.0 mi SSE 8.1 mph - 0.06 in   Overcast